Lamezia Terme, Italy

5:28 PM CEST on April 25, 2017 (GMT +0200)
Terme

Weather History for LICA - February, 2013

Change the Weather History Date:

Monday, February 11, 2013

  Actual Average Record
Temperature  
Mean Temperature 43 °F -  
Max Temperature 53 °F 56 °F 65 °F (2014)
Min Temperature 33 °F 42 °F 30 °F (2005)
Degree Days  
Heating Degree Days 22    
Moisture  
Dew Point 38 °F    
Average Humidity 76    
Maximum Humidity 93    
Minimum Humidity 58    
Precipitation  
Precipitation 0.00 in - - ()
Sea Level Pressure  
Sea Level Pressure 29.91 in    
Wind  
Wind Speed 8 mph ()    
Max Wind Speed 18 mph    
Max Gust Speed -    
Visibility 6.2 miles    
Events      
Averages and records for this station are not official NWS values.
T = Trace of Precipitation, MM = Missing Value Source: Averaged Metar Reports

Daily Weather History Graph

Daily Weather History Graph

Search for Another Location

Airport or City:

Trip Planner

Search our weather history database for the weather conditions in past years. The results will help you decide how hot, cold, wet, or windy it might be!

Date:

Astronomy

Feb. 11, 2013 Rise Set
Actual Time 6:51 AM CET 5:27 PM CET
Civil Twilight 6:23 AM CET 5:55 PM CET
Nautical Twilight 5:52 AM CET 6:26 PM CET
Astronomical Twilight 5:21 AM CET 6:57 PM CET
Moon 7:06 AM CET (2/11) 7:04 PM CET (2/11)
Length of Visible Light 11h 31m
Length of Day
10h 36m
New Moon, 2% of the Moon is Illuminated
Feb 11
New Moon
Feb 17
First Quarter
Feb 25
Full
Mar 4
Last Quarter
Mar 11
New

Hourly Weather History & Observations

Time (CET) Temp. Windchill Dew Point Humidity Pressure Visibility Wind Dir Wind Speed Gust Speed Precip Events Conditions
12:50 AM 35.6 °F 31.7 °F 32.0 °F 87% 29.98 in 6.2 mi SE 4.6 mph - N/A   Partly Cloudy
1:50 AM 33.8 °F 27.7 °F 30.2 °F 87% 29.98 in 6.2 mi East 6.9 mph - N/A   Scattered Clouds
2:50 AM 33.8 °F 27.0 °F 32.0 °F 93% 29.98 in 6.2 mi East 8.1 mph - N/A   Mostly Cloudy
3:50 AM 33.8 °F 27.7 °F 32.0 °F 93% 29.98 in 6.2 mi East 6.9 mph - N/A   Mostly Cloudy
4:50 AM 35.6 °F 29.9 °F 32.0 °F 87% 29.98 in 6.2 mi East 6.9 mph - N/A   Mostly Cloudy
5:50 AM 35.6 °F 29.2 °F 32.0 °F 87% 29.98 in 6.2 mi East 8.1 mph - N/A   Mostly Cloudy
6:50 AM 37.4 °F 32.1 °F 32.0 °F 81% 30.01 in 6.2 mi East 6.9 mph - N/A   Mostly Cloudy
7:50 AM 39.2 °F 34.2 °F 33.8 °F 81% 30.01 in 6.2 mi East 6.9 mph - N/A   Partly Cloudy
8:50 AM 44.6 °F 38.4 °F 35.6 °F 71% 30.01 in 6.2 mi East 12.7 mph - N/A   Scattered Clouds
9:50 AM 48.2 °F - 37.4 °F 66% 29.98 in 6.2 mi East 13.8 mph - N/A   Scattered Clouds
10:50 AM 50.0 °F - 39.2 °F 66% 29.98 in 6.2 mi ENE 12.7 mph - N/A   Scattered Clouds
11:50 AM 53.6 °F - 39.2 °F 58% 29.95 in 6.2 mi East 18.4 mph - N/A   Partly Cloudy
12:50 PM 53.6 °F - 39.2 °F 58% 29.92 in 6.2 mi ENE 13.8 mph - N/A   Partly Cloudy
1:50 PM 53.6 °F - 41.0 °F 62% 29.89 in 6.2 mi East 15.0 mph - N/A   Partly Cloudy
2:50 PM 53.6 °F - 41.0 °F 62% 29.86 in 6.2 mi ENE 10.4 mph - N/A   Scattered Clouds
3:50 PM 53.6 °F - 41.0 °F 62% 29.86 in 6.2 mi ENE 12.7 mph - N/A   Partly Cloudy
4:50 PM 51.8 °F - 42.8 °F 71% 29.83 in - East 10.4 mph - N/A   Clear
5:50 PM 51.8 °F - 44.6 °F 76% 29.80 in - East 10.4 mph - N/A   Clear
6:50 PM 50.0 °F - 42.8 °F 76% 29.80 in - East 10.4 mph - N/A   Clear
7:50 PM 48.2 °F - 42.8 °F 82% 29.80 in - ENE 5.8 mph - N/A   Clear
8:50 PM 46.4 °F 42.4 °F 41.0 °F 81% 29.80 in - ENE 8.1 mph - N/A   Clear
9:50 PM 44.6 °F 41.4 °F 39.2 °F 81% 29.80 in - East 5.8 mph - N/A   Clear
11:50 PM 46.4 °F 43.5 °F 41.0 °F 81% 29.80 in - ENE 5.8 mph - N/A   Clear